EW7535 Weather Reports


Display with metric or nautical units.
time (UTC)temp
F
wind
direction
speed
MPH
gust
MPH
rain 1hr
in
rain 24hr
in
rain mn
in
humidity
%
barometer
mb
20260505100035 57 94 2.0 7.0 0.03 0.32 0.10 90 1009.0
20260505094523 58 103 1.0 6.0 0.03 0.32 0.10 90 1009.2
20260505093025 58 111 3.0 12.0 0.03 0.31 0.09 90 1008.9
20260505091518 58 119 4.0 10.0 0.01 0.28 0.07 90 1009.4
20260505090013 58 109 3.0 8.0 0.02 0.28 0.07 89 1009.3
20260505084511 58 119 2.0 9.0 0.04 0.28 0.07 89 1009.9
20260505083004 58 136 1.0 4.0 0.04 0.28 0.06 89 1010.5
20260505081504 58 115 0.0 5.0 0.05 0.28 0.06 89 1010.7
20260505080100 58 88 1.0 3.0 0.05 0.27 0.05 89 1011.0
20260505074559 59 94 0.0 3.0 0.04 0.25 0.03 89 1011.3
20260505073100 59 101 0.0 1.0 0.04 0.24 0.02 90 1011.6
20260505071550 59 99 0.0 0.0 0.05 0.23 0.01 90 1011.3
20260505070047 59 99 0.0 1.0 0.07 0.22 0.00 89 1011.2
20260505064545 59 101 0.0 1.0 0.08 0.21 0.21 89 1011.2
20260505063017 59 104 0.0 2.0 0.09 0.20 0.20 87 1011.0
20260505061515 59 110 0.0 0.0 0.08 0.17 0.17 86 1011.1
20260505060009 59 100 0.0 3.0 0.07 0.15 0.15 87 1011.0
20260505054509 59 110 0.0 0.0 0.06 0.13 0.13 87 1010.8
20260505053008 59 100 0.0 1.0 0.04 0.11 0.11 85 1010.9
20260505051508 59 112 0.0 4.0 0.03 0.09 0.09 85 1010.7
20260505041611 60 98 0.0 0.0 0.01 0.06 0.06 78 1010.9
20260505034555 61 93 0.0 4.0 0.00 0.05 0.05 70 1010.2
20260505033053 60 86 2.0 9.0 0.01 0.05 0.05 70 1009.6
20260505031554 58 103 3.0 8.0 0.01 0.05 0.05 73 1009.2
20260505030022 58 124 3.0 9.0 0.03 0.05 0.05 73 1010.2
20260505024519 58 94 3.0 6.0 0.04 0.05 0.05 74 1010.3
20260505023026 59 98 2.0 6.0 0.04 0.04 0.04 74 1010.4
20260505021512 60 101 0.0 1.0 0.04 0.04 0.04 71 1010.3
20260505020007 63 300 0.0 1.0 0.02 0.02 0.02 64 1010.3
20260505014510 64 270 3.0 12.0 0.01 0.01 0.01 55 1010.2
20260505013100 64 251 0.0 1.0 0.00 0.00 0.00 57 1009.9
20260505011557 64 297 0.0 3.0 0.00 0.00 0.00 63 1009.4
20260505010107 66 284 0.0 0.0 0.00 0.00 0.00 56 1009.0
20260505004549 67 261 0.0 7.0 0.00 0.00 0.00 48 1009.1
20260505003049 69 271 2.0 7.0 0.00 0.00 0.00 44 1009.2
20260505001543 70 259 0.0 5.0 0.00 0.00 0.00 42 1008.9
20260505000048 71 301 0.0 4.0 0.00 0.00 0.00 38 1008.5
20260504234540 71 263 4.0 9.0 0.00 0.00 0.00 36 1008.2
20260504233041 72 297 4.0 14.0 0.00 0.00 0.00 36 1008.9
20260504231535 74 290 11.0 18.0 0.00 0.00 0.00 31 1008.9
20260504230033 75 250 5.0 18.0 0.00 0.00 0.00 28 1008.6
20260504224536 76 304 16.0 22.0 0.00 0.00 0.00 26 1008.1
20260504223033 78 257 10.0 25.0 0.00 0.00 0.00 23 1007.9
20260504221529 78 274 10.0 17.0 0.00 0.00 0.00 22 1007.8
20260504220029 79 297 10.0 21.0 0.00 0.00 0.00 21 1008.1
20260504214539 81 288 7.0 15.0 0.00 0.00 0.00 20 1008.0
20260504213029 80 308 7.0 15.0 0.00 0.00 0.00 20 1007.8
20260504211601 81 292 8.0 17.0 0.00 0.00 0.00 22 1007.7
20260504204525 81 259 7.0 15.0 0.00 0.00 0.00 18 1007.9
20260504203025 81 255 0.0 12.0 0.00 0.00 0.00 19 1008.0
20260504201523 83 273 2.0 6.0 0.00 0.00 0.00 18 1008.1
20260504200022 82 252 3.0 11.0 0.00 0.00 0.00 19 1008.3
20260504194521 82 80 0.0 3.0 0.00 0.00 0.00 20 1008.2
20260504193019 83 223 0.0 3.0 0.00 0.00 0.00 22 1008.1
20260504191515 83 90 1.0 4.0 0.00 0.00 0.00 23 1008.2
20260504190014 81 136 2.0 7.0 0.00 0.00 0.00 23 1008.1
20260504184515 82 173 0.0 6.0 0.00 0.00 0.00 25 1008.5
20260504183017 80 91 2.0 8.0 0.00 0.00 0.00 25 1008.8
20260504181604 81 264 1.0 8.0 0.00 0.00 0.00 25 1009.0
20260504180100 79 98 1.0 6.0 0.00 0.00 0.00 24 1009.0
20260504174559 78 190 1.0 5.0 0.00 0.00 0.00 27 1009.1
20260504173057 78 217 2.0 6.0 0.00 0.00 0.00 27 1009.1
20260504171559 77 97 2.0 11.0 0.00 0.00 0.00 26 1009.3
20260504160104 78 168 2.0 7.0 0.00 0.00 0.00 30 1009.4
20260504120130 69 127 0.0 0.0 0.00 0.00 0.00 37 1007.7